Location: Borbetomagus
(49.6328°N, 8.3592°E)
Time: 20:30:04
(UTC+00:00)

Cosmos 1980 Rocket - Pass Details

Date: 19 May 2025
Orbit: 829 x 847 km, 71.0° (Epoch: 15 June)

Event Time Altitude Azimuth Distance (km) Brightness Sun altitude
Rises 20:45:12 0° 332° (NNW) 3,384 7.3 -12.1°
Reaches altitude 10° 20:47:41 10° 336° (NNW) 2,447 6.0 -12.4°
Maximum altitude 20:53:14 62° 57° (ENE) 937 2.4 -12.9°
Enters shadow 20:57:20 18° 134° (SE) 1,916 3.4 -13.3°
